Regional Weather Roundup
Issued by NWS Grand Forks, ND

Home | Current Version | Previous Version | Text Only | Print | Product List | Glossary On
Versions: 1 2 3 4 5 6 7 8 9 10 11 12 13 14 15 16 17 18 19 20 21 22 23 24 25 26 27 28 29 30 31 32 33 34 35 36 37 38 39 40 41 42 43 44 45 46 47 48 49 50
000
ASUS43 KFGF 172031
RWRFGF
PRAIRIE TO PINES  WEATHER ROUNDUP
NATIONAL WEATHER SERVICE EASTERN NORTH DAKOTA/GRAND FORKS ND
300 PM CDT TUE OCT 17 2017

 **SATELLITE DATA USED TO AUGMENT SKY COVER AT AUTOMATED STATIONS**
 *****  WEATHER ACROSS EASTERN NORTH DAKOTA  *****

CITY           SKY/WX    TMP DP  RH WIND       PRES   REMARKS
GRAND FORKS    FAIR      78  38  23 SW17G26   29.73F
GRAND FRKS AFB FAIR      78  33  20 SW16      29.72F
DEVILS LAKE    FAIR      71  34  25 SW16      29.72F
FARGO          FAIR      75  39  27 S18       29.81F
WAHPETON ARPT  NOT AVBL
$$

 ***** WEATHER ACROSS CENTRAL AND WESTERN NORTH DAKOTA  *****

CITY           SKY/WX    TMP DP  RH WIND       PRES   REMARKS
BISMARCK       FAIR      79  29  16 W15       29.80F
MINOT          FAIR      75  29  18 SW23G30   29.70F
JAMESTOWN      FAIR      76  30  18 SW14G22   29.78F
MINOT AFB      FAIR      73  31  21 W17G23    29.67F
GARRISON         N/A     75  31  19 SW20      29.74F
WILLISTON      FAIR      76  27  16 W23G29    29.70F
DICKINSON      FAIR      75  25  15 W17       29.79
HETTINGER      FAIR      76  22  13 W16       29.87F
$$

 *****  OTHER AIRPORT OBSERVATIONS IN OUR AREA  *****

CITY           SKY/WX    TMP DP  RH WIND       PRES   REMARKS
WALHALLA       FAIR     N/A N/A N/A SW13G20   29.66F
GRAFTON AIRPOR FAIR      75  36  23 SW15      29.70F
VALLEY CITY AR FAIR      77  36  22 SW17G23   29.79F
CANDO          FAIR      75  30  19 SW20G29   29.70F
CAVALIER APRT  FAIR      73  37  27 S12G21    29.67F
GWINNER        CLEAR     73  39  29 SW20      29.82F
SHEYENNE NWR     N/A     76  38  24 SW15      29.95S
ROLLA          FAIR      72  30  21 SW22G30   29.66F
 ***** THE ABOVE OBSERVATIONS ARE NON NWS ARE NOT QUALITY
       CONTROLLED AND MAY MIS-REPORT RAIN FOR SNOW...
$$

  *****  WEATHER ACROSS NORTHERN MINNESOTA  *****

CITY           SKY/WX    TMP DP  RH WIND       PRES   REMARKS
FLAG ISLAND    FAIR      57  45  62 S12       29.71F
WARROAD        FAIR      72  43  35 SW14G20   29.73F
ROSEAU         FAIR      72  37  28 SW24G30   29.72F
HALLOCK        FAIR      73  34  23 SW18      29.68F
THF RVR FALLS  FAIR      71  37  28 S21G26    29.77F
BAUDETTE         N/A     71  36  27 S17G25    29.77F
WASKISH        FAIR      70  37  30 SW13G18   29.81F
CROOKSTON      FAIR      73  37  27 SW22      29.75F
STEPHEN NDAWN    N/A     73  37  27 S16         N/A
GREENBUSH NDAW   N/A     72  39  30 S20         N/A
$$
  *****  WEATHER ACROSS CENTRAL AND WEST MINNESOTA  *****

CITY           SKY/WX    TMP DP  RH WIND       PRES   REMARKS
FOSSTON        FAIR      72  34  25 S20       29.80F
BEMIDJI        FAIR      70  36  28 SW12G17   29.84F
PARK RAPIDS    FAIR      69  39  33 SW10      29.88F
ELBOW LAKE     FAIR      73  42  33 SW10      29.88F HAZE
WADENA         FAIR      70  39  32 S12       29.88F
DETROIT LAKES  FAIR      68  37  32 S10       29.86F
MOORHEAD       FAIR      73  36  25 SW15G23   29.82F
FERGUS FALLS   FAIR      73  41  31 SW13      29.86F
MORRIS MN      FAIR      75  39  27 SW10      29.88F
STAPLES        FAIR      72  34  25 SW10      29.90F
$$
  *****  WEATHER ELSEWHERE ACROSS MINNESOTA  *****

CITY           SKY/WX    TMP DP  RH WIND       PRES   REMARKS
DULUTH         FAIR      67  36  31 SW13      29.91F
INTRNTL FALLS  FAIR      71  35  26 SW13G23   29.81F
ELY            FAIR      68  28  22 SW10G17   29.88F
CLOQUET        FAIR      68  34  28 S8        29.91F
WHEATON        FAIR      77  28  16 SW15      29.87F
BRAINERD       FAIR      69  40  34 SW12      29.91F
HIBBING        FAIR      67  34  29 SW9G21    29.88F
ALEXANDRIA     FAIR      72  40  31 S13       29.92F
SAINT CLOUD    FAIR      72  42  34 SW10      29.92F
MINNEAPOLIS    FAIR      71  45  39 SW6       29.95F
$$

  *****  WEATHER ACROSS SOUTH DAKOTA  *****

CITY           SKY/WX    TMP DP  RH WIND       PRES   REMARKS
SIOUX FALLS    FAIR      76  44  32 SW3       29.97F
BROOKINGS      FAIR      75  36  24 SW14      29.95F
WATERTOWN      FAIR      73  40  30 S17       29.91F
HURON          FAIR      78  40  25 MISG      29.92F
SISSETON         N/A     76  37  24 SW22      29.86F
ABERDEEN       FAIR      78  36  21 SW17      29.86F
MITCHELL       FAIR      79  35  20 SW13      29.94F
PIERRE         FAIR      75  38  26 SE7       29.89F
MOBRIDGE       FAIR      81  28  14 SW14      29.83F
RAPID CITY     FAIR      76  29  17 S14       29.92F
$$

  *****  SOME WEATHER IN NEARBY STATES *****

CITY           SKY/WX    TMP DP  RH WIND       PRES   REMARKS
GLASGOW MT     FAIR      76  22  13 SW25G36   29.66F
GREAT FALLS MT FAIR      72  19  13 SW30G49   29.73F
CHEYENNE WY    FAIR      71   9   9 W22G35    30.16F
SCOTTSBLUFF NE FAIR      77  15   9 W10       30.03F
OMAHA NE       FAIR      71  44  37 S10       30.03F
DES MOINES IA  FAIR      72  41  32 S20       30.04F
DAVENPORT IA   FAIR      70  43  37 S15G21    30.13F
CHICAGO IL     FAIR      70  38  31 SW18      30.12F
EAU CLAIRE WI  FAIR      70  43  37 S12       29.96F
LA CROSSE WI   FAIR      70  46  42 S12       30.00F
$$

  *****  SOME NATIONAL WEATHER *****

CITY           SKY/WX    TMP DP  RH WIND       PRES   REMARKS
LA GUARDIA NY  FAIR      61  29  29 VRB5      30.26F
RALEIGH NC     FAIR      64  34  32 N8        30.30F
ATLANTA GA     FAIR      68  40  35 VRB7      30.25F
NEW ORLEANS LA FAIR      72  58  61 VRB7      30.15F
OKLAHOMA CITY  FAIR      71  42  35 S13G22    30.16F
ALBUQUERQUE NM PTSUNNY   70  28  21 VRB3      30.27F
SALT LAKE CITY PTSUNNY   65  26  23 E3        30.20F
LOS ANGELES CA FAIR      78  63  59 W13       29.98F
BOISE ID       FAIR      59  30  33 E3        30.14F
SEATTLE WA     PTSUNNY   57  49  74 SW18G25   30.05F
$$

*** WEATHER ACROSS MANITOBA...SASKATCHEWAN AND ONTARIO ***
                ***ONTARIO***

CITY           SKY/WX    TMP DP  RH WIND       PRES   REMARKS
GERALDTON      PTSUNNY   55  32  41 W9G17     29.87R
THUNDER BAY    MOSUNNY   64  34  32 SW6       29.88F
SIOUX LOOKOUT  CLOUDY    59  37  44 S7        29.81F
TORONTO        MOSUNNY   66  39  37 SW17G30   30.03F
BIG TROUT LK   MOSUNNY   39  32  75 NW9       29.84F
PICKLE LAKE    CLOUDY    43  32  65 CALM      29.85F
DRYDEN         SUNNY     64  36  34 S13G18    29.78F
KENORA         PTSUNNY   64  39  39 S14G25    29.74F
$$
                *** MANITOBA***

CITY           SKY/WX    TMP DP  RH WIND       PRES   REMARKS
BRANDON        CLOUDY    66  36  32 SW16G23   29.62F
DAUPHIN        SUNNY     72  34  25 SW10      29.53F
ISLAND LAKE    NOT AVBL
PILOT MOUND      N/A     68  32  26 SW23        N/A
THE PAS        PTSUNNY   52  37  58 SE23      29.48F
THOMPSON       CLOUDY    36  32  87 SE5       29.67F
WINNIPEG       PTSUNNY   68  39  34 S17       29.64F
LYNN LAKE      CLOUDY    34  34 100 SE14      29.52F WCI  24
CHURCHILL      PTSUNNY   25  23  93 W7        29.82  WCI  17
GILLAM         PTSUNNY   32  28  86 E6        29.78F
$$
                ***SASKATCHEWAN***

CITY           SKY/WX    TMP DP  RH WIND       PRES   REMARKS
ESTEVAN        MOSUNNY   72  30  21 SW18G28   29.62F
KINDERSLEY     MOSUNNY   73  34  23 SW36G47   29.29F
LLOYDMINSTER   CLOUDY    57  39  51 S16       29.16F
PRINCE ALBERT  PTSUNNY   57  37  47 SE8       29.35F
REGINA         MOSUNNY   73  30  20 SW23G30   29.50F
YORKTON        SUNNY     68  34  28 SW15G22   29.49F
N. BATTLEFORD  SUNNY     68  37  32 S16G24    29.26F
LA RONGE       CLOUDY    52  39  62 NE8       29.32F
SASKATOON      PTSUNNY   72  36  26 SW16G26   29.34F
SWIFT CURRENT  SUNNY     73  25  16 SW36G46   29.46F
$$
NOTE: THESE ARE AUTOMATED STATIONS WITH LIMITED QUALITY CONTROL
      "FAIR" INDICATES FEW OR NO CLOUDS BELOW 12,000 FEET WITH NO
      SIGNIFICANT WEATHER AND/OR OBSTRUCTIONS TO VISIBILITY.
      SKY/WX - SKY CONDITION AND SIGNIFICANT WEATHER.
      TMP - AIR TEMPERATURE.    DP   - DEWPOINT TEMPERATURE.
      RH  - RELATIVE HUMIDITY.  PRES - PRESSURE.
      HX  - HEAT INDEX.         WCI  - WIND CHILL INDEX.
$




USA.gov is the U.S. government's official web portal to all federal, state and local government web resources and services.